Hrossey — VSTY6 — position and weather

sailwx.info

Track history (hours):
 
Tides and Currents Weather Stations Pressure Air Temp Water Temp Dewpoint Dewpoint Depression Visibility Wind Speed Wind Dir Waves Ship Positions

Hrossey

Operator: NorthLink Orkey & Shetland Ferries Ltd

Last reported at 2019-Jul-22 00:06 UTC. Time now 2019-Jul-22 14:50 UTC.
Position N 59°04' W 002°28'.

Length 125 m; draft 5.4 m.

Type: Ship. MMSI: 235448000.

Date/timePositionNaut miles runAvg speedWind from/ knotsBaromVisibWave heightAir tempDewpointWater temp
2019-Jul-22 00:06N 59°04' W 002°28'113.0
2019-Jul-22 00:00N 59°03' W 002°29'612.2
2019-Jul-21 23:30N 59°00' W 002°40'816.0
2019-Jul-21 23:00N 59°01' W 002°56'2 3.3
2019-Jul-21 22:26N 58°60' W 002°58'0 0.0
2019-Jul-21 22:00N 58°60' W 002°58'510.0
2019-Jul-21 21:30N 59°00' W 002°49'918.2
2019-Jul-21 21:00N 58°55' W 002°35'2021.7
2019-Jul-21 20:05N 58°36' W 002°21'5923.8
2019-Jul-21 17:36N 57°41' W 001°44'222.7
2019-Jul-21 17:30N 57°39' W 001°43'1122.0
2019-Jul-21 17:00N 57°28' W 001°41'1122.3
2019-Jul-21 16:31N 57°18' W 001°50'1122.0
2019-Jul-21 16:01N 57°09' W 002°03'1 2.6
2019-Jul-21 15:29N 57°09' W 002°05'0 0.0
2019-Jul-21 14:59N 57°09' W 002°05'0 0.0
2019-Jul-21 14:29N 57°09' W 002°05'0 0.0
2019-Jul-21 13:59N 57°09' W 002°05'0 0.0
2019-Jul-21 13:29N 57°09' W 002°05'0 0.0
2019-Jul-21 12:59N 57°09' W 002°05'0 0.0
2019-Jul-21 12:29N 57°09' W 002°05'0 0.0
2019-Jul-21 11:59N 57°09' W 002°05'0 0.0
2019-Jul-21 11:29N 57°09' W 002°05'0 0.0
2019-Jul-21 10:59N 57°09' W 002°05'0 0.0
2019-Jul-21 10:29N 57°09' W 002°05'0 0.0
2019-Jul-21 09:59N 57°09' W 002°05'0 0.0
2019-Jul-21 09:29N 57°09' W 002°05'0 0.0
2019-Jul-21 08:59N 57°09' W 002°05'0 0.0
2019-Jul-21 08:29N 57°09' W 002°05'0 0.0
2019-Jul-21 07:59N 57°09' W 002°05'0 0.0
2019-Jul-21 07:29N 57°09' W 002°05'0 0.0
2019-Jul-21 06:59N 57°09' W 002°05'0 0.0
2019-Jul-21 06:29N 57°09' W 002°05'0 0.0
2019-Jul-21 05:58N 57°09' W 002°05'1 1.1
2019-Jul-21 05:30N 57°09' W 002°05'510.5
2019-Jul-21 05:00N 57°12' W 001°58'713.4
2019-Jul-21 04:30N 57°18' W 001°51'816.4
2019-Jul-21 04:00N 57°25' W 001°43'917.1
2019-Jul-21 03:30N 57°33' W 001°37'15 0.5
2019-Jul-19 20:46N 57°48' W 001°34'516.3
2019-Jul-19 20:27N 57°43' W 001°35'716.2
2019-Jul-19 20:00N 57°36' W 001°35'816.4
2019-Jul-19 19:30N 57°28' W 001°38'816.8
2019-Jul-19 19:00N 57°21' W 001°46'816.4
2019-Jul-19 18:30N 57°14' W 001°55'714.1
2019-Jul-19 18:00N 57°09' W 002°03'1 2.0
2019-Jul-19 17:29N 57°09' W 002°05'0 0.0
2019-Jul-19 17:01N 57°09' W 002°05'0 0.0
2019-Jul-19 16:28N 57°09' W 002°05'0 0.0
2019-Jul-19 16:00N 57°09' W 002°05'0 0.0
2019-Jul-19 15:30N 57°09' W 002°05'0 0.0
2019-Jul-19 14:59N 57°09' W 002°05'0 0.0
2019-Jul-19 14:28N 57°09' W 002°05'0 0.0
2019-Jul-19 13:59N 57°09' W 002°05'0 0.0
2019-Jul-19 13:28N 57°09' W 002°05'0 0.0
2019-Jul-19 12:59N 57°09' W 002°05'0 0.0
2019-Jul-19 12:28N 57°09' W 002°05'0 0.0
2019-Jul-19 11:56N 57°09' W 002°05'0 0.0
2019-Jul-19 11:30N 57°09' W 002°05'0 0.0
2019-Jul-19 11:00N 57°09' W 002°05'0 0.0
2019-Jul-19 10:30N 57°09' W 002°05'0 0.0
2019-Jul-19 09:59N 57°09' W 002°05'0 0.0
2019-Jul-19 09:29N 57°09' W 002°05'0 0.0
2019-Jul-19 09:00N 57°09' W 002°05'0 0.0
2019-Jul-19 08:30N 57°09' W 002°05'0 0.0
2019-Jul-19 08:00N 57°09' W 002°05'0 0.0
2019-Jul-19 07:24N 57°09' W 002°05'0 0.0
2019-Jul-19 06:59N 57°09' W 002°05'0 0.0
2019-Jul-19 06:30N 57°09' W 002°05'0 0.0
2019-Jul-19 06:00N 57°09' W 002°05'1 1.2
2019-Jul-19 05:31N 57°09' W 002°04'611.8
2019-Jul-19 05:00N 57°13' W 001°57'917.2
2019-Jul-19 04:28N 57°21' W 001°47'715.4
2019-Jul-19 04:00N 57°27' W 001°40'816.0
2019-Jul-19 03:31N 57°34' W 001°36'816.1
2019-Jul-19 03:00N 57°42' W 001°35'7 0.2
2019-Jul-17 20:45N 57°50' W 001°38'416.3
2019-Jul-17 20:30N 57°46' W 001°37'816.4
2019-Jul-17 20:00N 57°37' W 001°37'917.0
2019-Jul-17 19:30N 57°29' W 001°37'816.9
2019-Jul-17 19:00N 57°22' W 001°46'917.0
2019-Jul-17 18:30N 57°15' W 001°55'815.3
2019-Jul-17 18:00N 57°09' W 002°03'1 2.0
2019-Jul-17 17:25N 57°09' W 002°05'0 0.0
2019-Jul-17 16:59N 57°09' W 002°05'0 0.0
2019-Jul-17 16:29N 57°09' W 002°05'0 0.0
2019-Jul-17 15:59N 57°09' W 002°05'0 0.0
2019-Jul-17 15:29N 57°09' W 002°05'0 0.0
2019-Jul-17 14:59N 57°09' W 002°05'0 0.0
2019-Jul-17 14:29N 57°09' W 002°05'0 0.0
2019-Jul-17 13:59N 57°09' W 002°05'0 0.0
2019-Jul-17 13:29N 57°09' W 002°05'0 0.0
2019-Jul-17 12:59N 57°09' W 002°05'0 0.0
2019-Jul-17 12:29N 57°09' W 002°05'0 0.0
2019-Jul-17 11:59N 57°09' W 002°05'0 0.0
2019-Jul-17 11:29N 57°09' W 002°05'0 0.0
2019-Jul-17 10:59N 57°09' W 002°05'0 0.0
2019-Jul-17 10:29N 57°09' W 002°05'0 0.0
2019-Jul-17 09:59N 57°09' W 002°05'0 0.0
2019-Jul-17 09:29N 57°09' W 002°05'0 0.0
2019-Jul-17 08:59N 57°09' W 002°05'0 0.0
2019-Jul-17 08:29N 57°09' W 002°05'0 0.0
2019-Jul-17 07:59N 57°09' W 002°05'0 0.0
2019-Jul-17 07:29N 57°09' W 002°05'0 0.0
2019-Jul-17 06:59N 57°09' W 002°05'0 0.0
2019-Jul-17 06:29N 57°09' W 002°05'0 0.0
2019-Jul-17 05:59N 57°09' W 002°05'1 1.4
2019-Jul-17 05:30N 57°08' W 002°04'713.8
2019-Jul-17 05:01N 57°13' W 001°55'612.7
2019-Jul-17 04:31N 57°18' W 001°48'712.9
2019-Jul-17 03:58N 57°24' W 001°40'612.8
2019-Jul-17 03:30N 57°29' W 001°36'917.8
2019-Jul-17 03:00N 57°38' W 001°36'6 0.2
2019-Jul-15 20:01N 57°44' W 001°36'219.2
2019-Jul-15 19:53N 57°42' W 001°36'719.6
2019-Jul-15 19:30N 57°34' W 001°37'1019.6
2019-Jul-15 19:00N 57°25' W 001°42'1020.1
2019-Jul-15 18:30N 57°16' W 001°52'919.0
2019-Jul-15 18:00N 57°09' W 002°03'1 2.8
2019-Jul-15 17:30N 57°09' W 002°05'0 0.0
2019-Jul-15 17:00N 57°09' W 002°05'0 0.0
2019-Jul-15 16:30N 57°09' W 002°05'0 0.0
2019-Jul-15 16:00N 57°09' W 002°05'0 0.0
2019-Jul-15 15:30N 57°09' W 002°05'0 0.0
2019-Jul-15 15:00N 57°09' W 002°05'0 0.0
2019-Jul-15 14:30N 57°09' W 002°05'0 0.0
2019-Jul-15 14:00N 57°09' W 002°05'0 0.0
2019-Jul-15 13:30N 57°09' W 002°05'0 0.0
2019-Jul-15 13:00N 57°09' W 002°05'0 0.0
2019-Jul-15 12:30N 57°09' W 002°05'0 0.0
2019-Jul-15 12:00N 57°09' W 002°05'0 0.0
2019-Jul-15 11:30N 57°09' W 002°05'0 0.0
2019-Jul-15 11:00N 57°09' W 002°05'0 0.0
2019-Jul-15 10:30N 57°09' W 002°05'0 0.0
2019-Jul-15 10:00N 57°09' W 002°05'0 0.0
2019-Jul-15 09:30N 57°09' W 002°05'0 0.0
2019-Jul-15 09:00N 57°09' W 002°05'0 0.0
2019-Jul-15 08:30N 57°09' W 002°05'0 0.0
2019-Jul-15 08:00N 57°09' W 002°05'0 0.0
2019-Jul-15 07:30N 57°09' W 002°05'0 0.0
2019-Jul-15 07:00N 57°09' W 002°05'0 0.0
2019-Jul-15 06:30N 57°09' W 002°05'0 0.0
2019-Jul-15 06:00N 57°09' W 002°05'1 1.2
2019-Jul-15 05:30N 57°09' W 002°04'612.9
2019-Jul-15 05:00N 57°13' W 001°56'816.5
2019-Jul-15 04:30N 57°20' W 001°48'611.9
2019-Jul-15 04:00N 57°25' W 001°42'612.3
2019-Jul-15 03:30N 57°31' W 001°36'612.7
2019-Jul-15 03:01N 57°37' W 001°34'7615.3
2019-Jul-14 22:01N 58°53' W 001°25'319.4
2019-Jul-14 21:51N 58°56' W 001°24'719.7
2019-Jul-14 21:30N 59°03' W 001°22'1119.6
2019-Jul-14 20:55N 59°14' W 001°18'1119.4
2019-Jul-14 20:20N 59°25' W 001°15'2219.1
2019-Jul-14 19:10N 59°48' W 001°09'4 0.3
2019-Jul-14 04:45N 59°48' W 001°17'516.5
2019-Jul-14 04:29N 59°45' W 001°23'3416.3
2019-Jul-14 02:24N 59°17' W 002°03'1816.4
2019-Jul-14 01:18N 59°04' W 002°27'516.7
2019-Jul-14 01:00N 59°01' W 002°34'816.6
2019-Jul-14 00:30N 59°01' W 002°50'5 9.0
2019-Jul-14 00:00N 58°60' W 002°58'0 0.0
2019-Jul-13 23:27N 58°60' W 002°58'2 4.2
2019-Jul-13 23:00N 59°01' W 002°56'1121.9
2019-Jul-13 22:30N 58°57' W 002°37'1122.7
2019-Jul-13 22:00N 58°47' W 002°28'7322.6
2019-Jul-13 18:47N 57°38' W 001°41'623.3
2019-Jul-13 18:31N 57°32' W 001°40'1223.3
2019-Jul-13 17:59N 57°20' W 001°48'1123.7
2019-Jul-13 17:31N 57°11' W 001°59'4 7.9
2019-Jul-13 17:00N 57°09' W 002°05'0 0.0
2019-Jul-13 16:30N 57°09' W 002°05'0 0.0
2019-Jul-13 16:00N 57°09' W 002°05'0 0.0
2019-Jul-13 15:30N 57°09' W 002°05'0 0.0
2019-Jul-13 15:00N 57°09' W 002°05'0 0.0
2019-Jul-13 14:31N 57°09' W 002°05'0 0.0
2019-Jul-13 14:00N 57°09' W 002°05'0 0.0
2019-Jul-13 13:30N 57°09' W 002°05'0 0.0
2019-Jul-13 13:00N 57°09' W 002°05'0 0.0
2019-Jul-13 12:30N 57°09' W 002°05'0 0.0
2019-Jul-13 12:00N 57°09' W 002°05'0 0.0
2019-Jul-13 11:30N 57°09' W 002°05'0 0.0
2019-Jul-13 11:00N 57°09' W 002°05'0 0.0
2019-Jul-13 10:27N 57°09' W 002°05'0 0.0
2019-Jul-13 10:00N 57°09' W 002°05'0 0.0
2019-Jul-13 09:30N 57°09' W 002°05'0 0.0
2019-Jul-13 09:00N 57°09' W 002°05'0 0.0
2019-Jul-13 08:30N 57°09' W 002°05'0 0.0
2019-Jul-13 08:00N 57°09' W 002°05'0 0.0
2019-Jul-13 07:31N 57°09' W 002°05'0 0.0
2019-Jul-13 07:01N 57°09' W 002°05'0 0.0
2019-Jul-13 06:30N 57°09' W 002°05'0 0.0
2019-Jul-13 05:57N 57°09' W 002°05'1 1.3
2019-Jul-13 05:30N 57°08' W 002°04'714.4
2019-Jul-13 05:00N 57°13' W 001°54'1317.8
2019-Jul-13 04:18N 57°24' W 001°43'518.0
2019-Jul-13 04:01N 57°29' W 001°39'9220.5
2019-Jul-12 23:32N 58°56' W 002°33'120.7
2019-Jul-12 23:29N 58°57' W 002°34'919.6
2019-Jul-12 23:00N 59°01' W 002°51'4 5.3
2019-Jul-12 22:16N 58°60' W 002°58'0 0.0
2019-Jul-12 21:59N 58°60' W 002°58'0 0.0
2019-Jul-12 21:30N 58°60' W 002°58'611.6
2019-Jul-12 21:00N 59°00' W 002°47'7819.5
2019-Jul-12 17:00N 59°60' W 001°08'68 4.1
2019-Jul-12 00:14N 59°04' W 002°27'  
Track history (hours):
 
Tides and Currents Weather Stations Pressure Air Temp Water Temp Dewpoint Dewpoint Depression Visibility Wind Speed Wind Dir Waves Ship Positions

Hrossey

Operator: NorthLink Orkey & Shetland Ferries Ltd

Last reported at 2019-Jul-22 00:06 UTC. Time now 2019-Jul-22 14:50 UTC.
Position N 59°04' W 002°28'.

Length 125 m; draft 5.4 m.

Type: Ship. MMSI: 235448000.

Date/timePositionNaut miles runAvg speedWind from/ knotsBaromVisibWave heightAir tempDewpointWater temp
2019-Jul-22 00:06N 59°04' W 002°28'113.0
2019-Jul-22 00:00N 59°03' W 002°29'612.2
2019-Jul-21 23:30N 59°00' W 002°40'816.0
2019-Jul-21 23:00N 59°01' W 002°56'2 3.3
2019-Jul-21 22:26N 58°60' W 002°58'0 0.0
2019-Jul-21 22:00N 58°60' W 002°58'510.0
2019-Jul-21 21:30N 59°00' W 002°49'918.2
2019-Jul-21 21:00N 58°55' W 002°35'2021.7
2019-Jul-21 20:05N 58°36' W 002°21'5923.8
2019-Jul-21 17:36N 57°41' W 001°44'222.7
2019-Jul-21 17:30N 57°39' W 001°43'1122.0
2019-Jul-21 17:00N 57°28' W 001°41'1122.3
2019-Jul-21 16:31N 57°18' W 001°50'1122.0
2019-Jul-21 16:01N 57°09' W 002°03'1 2.6
2019-Jul-21 15:29N 57°09' W 002°05'0 0.0
2019-Jul-21 14:59N 57°09' W 002°05'0 0.0
2019-Jul-21 14:29N 57°09' W 002°05'0 0.0
2019-Jul-21 13:59N 57°09' W 002°05'0 0.0
2019-Jul-21 13:29N 57°09' W 002°05'0 0.0
2019-Jul-21 12:59N 57°09' W 002°05'0 0.0
2019-Jul-21 12:29N 57°09' W 002°05'0 0.0
2019-Jul-21 11:59N 57°09' W 002°05'0 0.0
2019-Jul-21 11:29N 57°09' W 002°05'0 0.0
2019-Jul-21 10:59N 57°09' W 002°05'0 0.0
2019-Jul-21 10:29N 57°09' W 002°05'0 0.0
2019-Jul-21 09:59N 57°09' W 002°05'0 0.0
2019-Jul-21 09:29N 57°09' W 002°05'0 0.0
2019-Jul-21 08:59N 57°09' W 002°05'0 0.0
2019-Jul-21 08:29N 57°09' W 002°05'0 0.0
2019-Jul-21 07:59N 57°09' W 002°05'0 0.0
2019-Jul-21 07:29N 57°09' W 002°05'0 0.0
2019-Jul-21 06:59N 57°09' W 002°05'0 0.0
2019-Jul-21 06:29N 57°09' W 002°05'0 0.0
2019-Jul-21 05:58N 57°09' W 002°05'1 1.1
2019-Jul-21 05:30N 57°09' W 002°05'510.5
2019-Jul-21 05:00N 57°12' W 001°58'713.4
2019-Jul-21 04:30N 57°18' W 001°51'816.4
2019-Jul-21 04:00N 57°25' W 001°43'917.1
2019-Jul-21 03:30N 57°33' W 001°37'15 0.5
2019-Jul-19 20:46N 57°48' W 001°34'516.3
2019-Jul-19 20:27N 57°43' W 001°35'716.2
2019-Jul-19 20:00N 57°36' W 001°35'816.4
2019-Jul-19 19:30N 57°28' W 001°38'816.8
2019-Jul-19 19:00N 57°21' W 001°46'816.4
2019-Jul-19 18:30N 57°14' W 001°55'714.1
2019-Jul-19 18:00N 57°09' W 002°03'1 2.0
2019-Jul-19 17:29N 57°09' W 002°05'0 0.0
2019-Jul-19 17:01N 57°09' W 002°05'0 0.0
2019-Jul-19 16:28N 57°09' W 002°05'0 0.0
2019-Jul-19 16:00N 57°09' W 002°05'0 0.0
2019-Jul-19 15:30N 57°09' W 002°05'0 0.0
2019-Jul-19 14:59N 57°09' W 002°05'0 0.0
2019-Jul-19 14:28N 57°09' W 002°05'0 0.0
2019-Jul-19 13:59N 57°09' W 002°05'0 0.0
2019-Jul-19 13:28N 57°09' W 002°05'0 0.0
2019-Jul-19 12:59N 57°09' W 002°05'0 0.0
2019-Jul-19 12:28N 57°09' W 002°05'0 0.0
2019-Jul-19 11:56N 57°09' W 002°05'0 0.0
2019-Jul-19 11:30N 57°09' W 002°05'0 0.0
2019-Jul-19 11:00N 57°09' W 002°05'0 0.0
2019-Jul-19 10:30N 57°09' W 002°05'0 0.0
2019-Jul-19 09:59N 57°09' W 002°05'0 0.0
2019-Jul-19 09:29N 57°09' W 002°05'0 0.0
2019-Jul-19 09:00N 57°09' W 002°05'0 0.0
2019-Jul-19 08:30N 57°09' W 002°05'0 0.0
2019-Jul-19 08:00N 57°09' W 002°05'0 0.0
2019-Jul-19 07:24N 57°09' W 002°05'0 0.0
2019-Jul-19 06:59N 57°09' W 002°05'0 0.0
2019-Jul-19 06:30N 57°09' W 002°05'0 0.0
2019-Jul-19 06:00N 57°09' W 002°05'1 1.2
2019-Jul-19 05:31N 57°09' W 002°04'611.8
2019-Jul-19 05:00N 57°13' W 001°57'917.2
2019-Jul-19 04:28N 57°21' W 001°47'715.4
2019-Jul-19 04:00N 57°27' W 001°40'816.0
2019-Jul-19 03:31N 57°34' W 001°36'816.1
2019-Jul-19 03:00N 57°42' W 001°35'7 0.2
2019-Jul-17 20:45N 57°50' W 001°38'416.3
2019-Jul-17 20:30N 57°46' W 001°37'816.4
2019-Jul-17 20:00N 57°37' W 001°37'917.0
2019-Jul-17 19:30N 57°29' W 001°37'816.9
2019-Jul-17 19:00N 57°22' W 001°46'917.0
2019-Jul-17 18:30N 57°15' W 001°55'815.3
2019-Jul-17 18:00N 57°09' W 002°03'1 2.0
2019-Jul-17 17:25N 57°09' W 002°05'0 0.0
2019-Jul-17 16:59N 57°09' W 002°05'0 0.0
2019-Jul-17 16:29N 57°09' W 002°05'0 0.0
2019-Jul-17 15:59N 57°09' W 002°05'0 0.0
2019-Jul-17 15:29N 57°09' W 002°05'0 0.0
2019-Jul-17 14:59N 57°09' W 002°05'0 0.0
2019-Jul-17 14:29N 57°09' W 002°05'0 0.0
2019-Jul-17 13:59N 57°09' W 002°05'0 0.0
2019-Jul-17 13:29N 57°09' W 002°05'0 0.0
2019-Jul-17 12:59N 57°09' W 002°05'0 0.0
2019-Jul-17 12:29N 57°09' W 002°05'0 0.0
2019-Jul-17 11:59N 57°09' W 002°05'0 0.0
2019-Jul-17 11:29N 57°09' W 002°05'0 0.0
2019-Jul-17 10:59N 57°09' W 002°05'0 0.0
2019-Jul-17 10:29N 57°09' W 002°05'0 0.0
2019-Jul-17 09:59N 57°09' W 002°05'0 0.0
2019-Jul-17 09:29N 57°09' W 002°05'0 0.0
2019-Jul-17 08:59N 57°09' W 002°05'0 0.0
2019-Jul-17 08:29N 57°09' W 002°05'0 0.0
2019-Jul-17 07:59N 57°09' W 002°05'0 0.0
2019-Jul-17 07:29N 57°09' W 002°05'0 0.0
2019-Jul-17 06:59N 57°09' W 002°05'0 0.0
2019-Jul-17 06:29N 57°09' W 002°05'0 0.0
2019-Jul-17 05:59N 57°09' W 002°05'1 1.4
2019-Jul-17 05:30N 57°08' W 002°04'713.8
2019-Jul-17 05:01N 57°13' W 001°55'612.7
2019-Jul-17 04:31N 57°18' W 001°48'712.9
2019-Jul-17 03:58N 57°24' W 001°40'612.8
2019-Jul-17 03:30N 57°29' W 001°36'917.8
2019-Jul-17 03:00N 57°38' W 001°36'6 0.2
2019-Jul-15 20:01N 57°44' W 001°36'219.2
2019-Jul-15 19:53N 57°42' W 001°36'719.6
2019-Jul-15 19:30N 57°34' W 001°37'1019.6
2019-Jul-15 19:00N 57°25' W 001°42'1020.1
2019-Jul-15 18:30N 57°16' W 001°52'919.0
2019-Jul-15 18:00N 57°09' W 002°03'1 2.8
2019-Jul-15 17:30N 57°09' W 002°05'0 0.0
2019-Jul-15 17:00N 57°09' W 002°05'0 0.0
2019-Jul-15 16:30N 57°09' W 002°05'0 0.0
2019-Jul-15 16:00N 57°09' W 002°05'0 0.0
2019-Jul-15 15:30N 57°09' W 002°05'0 0.0
2019-Jul-15 15:00N 57°09' W 002°05'0 0.0
2019-Jul-15 14:30N 57°09' W 002°05'0 0.0
2019-Jul-15 14:00N 57°09' W 002°05'0 0.0
2019-Jul-15 13:30N 57°09' W 002°05'0 0.0
2019-Jul-15 13:00N 57°09' W 002°05'0 0.0
2019-Jul-15 12:30N 57°09' W 002°05'0 0.0
2019-Jul-15 12:00N 57°09' W 002°05'0 0.0
2019-Jul-15 11:30N 57°09' W 002°05'0 0.0
2019-Jul-15 11:00N 57°09' W 002°05'0 0.0
2019-Jul-15 10:30N 57°09' W 002°05'0 0.0
2019-Jul-15 10:00N 57°09' W 002°05'0 0.0
2019-Jul-15 09:30N 57°09' W 002°05'0 0.0
2019-Jul-15 09:00N 57°09' W 002°05'0 0.0
2019-Jul-15 08:30N 57°09' W 002°05'0 0.0
2019-Jul-15 08:00N 57°09' W 002°05'0 0.0
2019-Jul-15 07:30N 57°09' W 002°05'0 0.0
2019-Jul-15 07:00N 57°09' W 002°05'0 0.0
2019-Jul-15 06:30N 57°09' W 002°05'0 0.0
2019-Jul-15 06:00N 57°09' W 002°05'1 1.2
2019-Jul-15 05:30N 57°09' W 002°04'612.9
2019-Jul-15 05:00N 57°13' W 001°56'816.5
2019-Jul-15 04:30N 57°20' W 001°48'611.9
2019-Jul-15 04:00N 57°25' W 001°42'612.3
2019-Jul-15 03:30N 57°31' W 001°36'612.7
2019-Jul-15 03:01N 57°37' W 001°34'7615.3
2019-Jul-14 22:01N 58°53' W 001°25'319.4
2019-Jul-14 21:51N 58°56' W 001°24'719.7
2019-Jul-14 21:30N 59°03' W 001°22'1119.6
2019-Jul-14 20:55N 59°14' W 001°18'1119.4
2019-Jul-14 20:20N 59°25' W 001°15'2219.1
2019-Jul-14 19:10N 59°48' W 001°09'4 0.3
2019-Jul-14 04:45N 59°48' W 001°17'516.5
2019-Jul-14 04:29N 59°45' W 001°23'3416.3
2019-Jul-14 02:24N 59°17' W 002°03'1816.4
2019-Jul-14 01:18N 59°04' W 002°27'516.7
2019-Jul-14 01:00N 59°01' W 002°34'816.6
2019-Jul-14 00:30N 59°01' W 002°50'5 9.0
2019-Jul-14 00:00N 58°60' W 002°58'0 0.0
2019-Jul-13 23:27N 58°60' W 002°58'2 4.2
2019-Jul-13 23:00N 59°01' W 002°56'1121.9
2019-Jul-13 22:30N 58°57' W 002°37'1122.7
2019-Jul-13 22:00N 58°47' W 002°28'7322.6
2019-Jul-13 18:47N 57°38' W 001°41'623.3
2019-Jul-13 18:31N 57°32' W 001°40'1223.3
2019-Jul-13 17:59N 57°20' W 001°48'1123.7
2019-Jul-13 17:31N 57°11' W 001°59'4 7.9
2019-Jul-13 17:00N 57°09' W 002°05'0 0.0
2019-Jul-13 16:30N 57°09' W 002°05'0 0.0
2019-Jul-13 16:00N 57°09' W 002°05'0 0.0
2019-Jul-13 15:30N 57°09' W 002°05'0 0.0
2019-Jul-13 15:00N 57°09' W 002°05'0 0.0
2019-Jul-13 14:31N 57°09' W 002°05'0 0.0
2019-Jul-13 14:00N 57°09' W 002°05'0 0.0
2019-Jul-13 13:30N 57°09' W 002°05'0 0.0
2019-Jul-13 13:00N 57°09' W 002°05'0 0.0
2019-Jul-13 12:30N 57°09' W 002°05'0 0.0
2019-Jul-13 12:00N 57°09' W 002°05'0 0.0
2019-Jul-13 11:30N 57°09' W 002°05'0 0.0
2019-Jul-13 11:00N 57°09' W 002°05'0 0.0
2019-Jul-13 10:27N 57°09' W 002°05'0 0.0
2019-Jul-13 10:00N 57°09' W 002°05'0 0.0
2019-Jul-13 09:30N 57°09' W 002°05'0 0.0
2019-Jul-13 09:00N 57°09' W 002°05'0 0.0
2019-Jul-13 08:30N 57°09' W 002°05'0 0.0
2019-Jul-13 08:00N 57°09' W 002°05'0 0.0
2019-Jul-13 07:31N 57°09' W 002°05'0 0.0
2019-Jul-13 07:01N 57°09' W 002°05'0 0.0
2019-Jul-13 06:30N 57°09' W 002°05'0 0.0
2019-Jul-13 05:57N 57°09' W 002°05'1 1.3
2019-Jul-13 05:30N 57°08' W 002°04'714.4
2019-Jul-13 05:00N 57°13' W 001°54'1317.8
2019-Jul-13 04:18N 57°24' W 001°43'518.0
2019-Jul-13 04:01N 57°29' W 001°39'9220.5
2019-Jul-12 23:32N 58°56' W 002°33'120.7
2019-Jul-12 23:29N 58°57' W 002°34'919.6
2019-Jul-12 23:00N 59°01' W 002°51'4 5.3
2019-Jul-12 22:16N 58°60' W 002°58'0 0.0
2019-Jul-12 21:59N 58°60' W 002°58'0 0.0
2019-Jul-12 21:30N 58°60' W 002°58'611.6
2019-Jul-12 21:00N 59°00' W 002°47'7819.5
2019-Jul-12 17:00N 59°60' W 001°08'68 4.1
2019-Jul-12 00:14N 59°04' W 002°27'  

Dump ship's entire track history